Location: Eexterzandvoort
(53.0303°N, 6.7884°E)
Time: 17:16:29
(UTC+00:00)

Cosmos 1975 - Pass Details

Date: 19 May 2025
Orbit: 487 x 506 km, 82.5° (Epoch: 17 June)

Event Time Altitude Azimuth Distance (km) Brightness Sun altitude
Rises 22:44:14 0° 344° (NNW) 2,578 8.1 -16.3°
Reaches altitude 10° 22:46:24 10° 339° (NNW) 1,689 6.6 -16.4°
Maximum altitude 22:49:57 49° 265° (W) 643 3.1 -16.5°
Enters shadow 22:51:20 31° 209° (SSW) 882 3.4 -16.5°
